Location: Huntsville
(34.7300°N, 86.5860°W)
Time: 19:21:09
(UTC-05:00)

Daily predictions for brighter satellites

Satellite Brightness Start Highest point End
(mag) Time Altitude Azimuth Time Altitude Azimuth Time Altitude Azimuth
FREGAT/IRIS 2.8 19:22:52 10° SSE 19:25:50 50° ENE 19:28:50 10° N
Meteor 2-15 4.5 19:25:05 10° N 19:31:16 85° E 19:37:23 10° S
Cosmos 2150 Rocket 4.1 19:27:27 10° S 19:32:24 50° ESE 19:37:21 10° NNE
H-2A R/B 3.8 19:29:31 10° SE 19:32:46 27° ENE 19:36:05 10° NNE
Meteor 1-24 Rocket 4.5 19:28:37 10° NNE 19:33:24 30° ENE 19:38:18 10° SE
Cosmos 1378 4.2 19:30:18 10° NNE 19:33:29 26° ENE 19:36:38 10° SE
Spot 2 Rocket 4.2 19:30:48 10° SE 19:35:19 33° ENE 19:39:52 10° N
Meteor 2-5 Rocket 3.9 19:30:06 10° N 19:35:43 57° E 19:41:26 10° SSE
FENGYUN 3A 3.8 19:30:54 10° SSE 19:36:08 53° ENE 19:41:23 10° N
Cosmos 2112 Rocket 4.0 19:32:09 10° NNW 19:37:28 90° SSW 19:42:41 10° SSE
Cosmos 2228 3.6 19:35:02 10° SSW 19:39:12 60° W 19:43:24 10° N
Delta 2 Rocket 3.5 19:35:49 10° W 19:40:35 78° N 19:44:17 13° E
Cosmos 1707 2.8 19:36:58 10° N 19:40:50 57° E 19:44:38 10° SSE
USA 215 3.4 19:38:43 10° NE 19:45:06 54° SE 19:51:26 10° SSW
RESURS DK-1 4.1 19:42:40 10° NNE 19:45:08 15° ENE 19:46:35 13° E
Cosmos 1898 Rocket 3.6 19:42:58 10° SSW 19:48:17 84° WNW 19:53:37 10° NNE
Cosmos 1766 3.7 19:45:08 10° SSE 19:48:42 36° E 19:52:16 10° NNE
Cosmos 990 Rocket 4.0 19:47:28 10° S 19:52:36 59° ESE 19:57:46 10° NNE
Envisat 4.5 19:51:33 15° E 19:53:21 18° ENE 19:56:41 10° NNE
Cosmos 192 4.3 19:49:58 10° NNW 19:54:54 77° ENE 19:59:47 10° SSE
COSMOS 2406 3.2 19:51:11 10° NNW 19:56:56 75° ENE 20:02:37 10° SSE
Cosmos 1544 4.1 20:04:09 25° E 20:04:15 25° E 20:07:17 10° NE
Helios 1A 3.7 20:04:20 22° ESE 20:06:09 31° ENE 20:09:52 10° N
Resurs 1-3 3.6 20:02:16 10° SSE 20:06:35 62° ENE 20:10:55 10° N
Cosmos 1844 4.0 20:04:25 10° SSW 20:10:09 73° WNW 20:15:57 10° NNE
HJ-1C 4.1 20:07:05 10° S 20:10:24 56° W 20:13:45 10° NNW
Geosat 4.2 20:06:33 10° NNE 20:11:36 77° WNW 20:16:35 10° SSW
Helios 1B rocket 2.6 20:07:59 10° NNE 20:11:58 45° E 20:15:55 10° S
CZ-3B DEB 3.6 20:00:29 10° SW 20:13:34 67° NW 20:19:22 10° NE
Lacrosse 4 Rocket 3.1 20:15:58 10° SW 20:19:40 34° WNW 20:23:24 10° N
CZ-2D R/B 3.1 20:16:40 14° SSE 20:19:58 77° ENE 20:23:50 10° N
Cosmos 2344 3.8 20:12:49 10° SW 20:20:30 77° WNW 20:28:50 10° NNE
Cosmos 1937 Rocket 4.2 20:17:45 10° SSW 20:22:52 55° WNW 20:28:03 10° N
SL-27 R/B 2.7 20:20:30 10° N 20:23:58 48° ENE 20:24:08 47° E
Yuri Rocket 3.8 20:21:07 10° WSW 20:24:55 35° S 20:25:53 30° SSE
Meteor 1-29 3.2 20:22:14 10° NNE 20:25:09 46° ENE 20:25:09 46° ENE
Tiangong 1 2.6 20:23:25 10° NW 20:25:50 23° NNE 20:25:53 23° NNE
Cosmos 1805 3.2 20:24:06 16° SSE 20:27:00 56° E 20:30:49 10° NNE
Cosmos 2098 Rocket 4.4 20:21:47 10° SSE 20:28:14 54° E 20:35:32 10° NNE
USA 186 3.7 20:31:19 14° N 20:31:19 14° N 20:31:46 10° N
Cosmos 1934 Rocket 4.4 20:25:24 10° SSW 20:31:31 65° W 20:37:35 10° N
ALOS 4.0 20:31:47 10° SSW 20:35:57 32° W 20:40:08 10° NNW
Okean 3 Rocket 3.4 20:32:14 10° N 20:36:36 65° E 20:37:36 49° SE
SeaSat 1 4.3 20:34:26 10° SSW 20:38:39 29° WSW 20:42:55 10° NW
Lacrosse 5 2.4 20:37:57 10° SW 20:42:57 59° NW 20:47:58 10° NNE
Cosmos 1758 3.1 20:43:44 78° ESE 20:43:48 79° E 20:47:47 10° N
Cosmos 1867 4.0 20:41:29 10° S 20:45:27 40° SSE 20:45:27 40° SSE
Cosmos 1939 Rocket 3.9 20:50:45 36° NNE 20:50:45 36° NNE 20:53:28 10° N
Resurs 01 Rocket 3.4 20:48:56 10° SSW 20:52:48 30° W 20:56:43 10° NW
GP-B 3.0 20:53:44 77° NE 20:53:44 77° NE 20:58:01 10° N
Cosmos 1953 2.4 20:55:19 70° NNW 20:55:19 70° NNW 20:58:59 10° N
In-Cosmos 22 4.3 20:54:12 10° NNW 20:59:28 66° W 21:02:27 26° S
Cosmos 2278 Rocket 3.2 20:58:10 10° SW 21:03:34 45° WNW 21:09:01 10° N
Cosmos 2100 Rocket 3.9 21:04:49 61° SE 21:05:33 66° E 21:11:50 10° NNE
Cosmos 1833 Rocket 3.7 21:04:43 10° N 21:08:29 32° NNE 21:08:29 32° NNE
Cosmos 2297 3.6 21:08:52 10° SSW 21:14:33 84° WNW 21:20:19 10° NNE
H-2A R/B (2) 3.1 21:12:19 10° WSW 21:15:05 36° SSW 21:15:05 36° SSW
RESURS DK-1 3.9 21:19:29 10° NW 21:22:33 34° W 21:22:33 34° W
Cosmos 2061 Rocket 4.0 21:28:29 74° NNE 21:28:29 74° NNE 21:34:19 10° N
USA 215 4.4 21:21:55 10° NNE 21:27:55 40° NW 21:33:53 10° WSW
Envisat 3.8 21:31:45 46° WSW 21:31:57 46° W 21:36:50 10° NNW
Cosmos 2082 Rocket 3.0 21:31:26 10° NNW 21:35:17 44° N 21:35:17 44° N
USA 267 4.1 21:59:17 41° N 21:59:17 41° N 22:04:01 10° NNW
BREEZE-M DEB (TANK) 4.3 21:54:56 10° W 21:59:08 55° NNW 22:14:58 10° ENE
